OneWeb SL0492

operational
NORAD ID: 54114 Int'l Des: 2022-138 Owner: ONEWEBN Country: UK Constellation: oneweb
LEOCIRCULARPOLARONEWEB_TYPE

关于 OneWeb SL0492

正在加载描述...

实时位置

正在加载3D地球...

即将过境

高度历史

Altitude vs Time

uPlot chart will show altitude changes over time

两行轨道根数

1 54114U 22138B 25352.48843580 .00000006 00000-0 -16315-4 0 9995
2 54114 87.9201 340.9259 0001734 78.7467 281.3860 13.19726112153000
Epoch: Dec 18, 2025 • Age: 11 hours

当前状态

高度 1197.9 km
速度 7.26 km/s
星下点 78.35°N, 75.64°E
发射日期 Oct 22, 2022
运行时间 3.1 years
类型 internet

技术详情

分类 Payload
质量 148.00 kg
干质量 140.00 kg
总质量 148.00 kg
长度 1.30 m
直径 1.00 m
跨度 5.00 m
形状 Trapezoid+2 pan
制造商 ONEWUS
平台类型 ARROW
阶段状态 In Orbit
所有者/国家 ONEWEBN/UK

大型星座

Loading constellations...